Presure
224 240 182 195 193 223 203 203 200 193 178 185 178 194 176 183 189 203 173 183 180 191 186 203 206 197 203 204 199 179 201 213
227 242 202 208 184 189 203 181 196 204 167 178 198 162 171 180 178 189 191 176 198 183 188 213 187 198 193 228 205 213 196 192
217 244 230 179 198 181 203 183 181 190 169 166 164 172 171 176 193 193 150 126 171 183 194 194 213 215 204 200 201 194 193 193
241 227 244 213 199 200 185 189 180 175 175 188 182 184 176 186 193 180 185 192 207 197 191 187 167 200 195 195 195 193 199 193
241 233 238 215 213 220 205 201 190 191 190 195 187 188 193 191 195 205 208 192 221 211 204 199 195 193 208 199 193 199 215 201
234 236 231 230 133 224 245 190 179 182 190 230 220 185 206 201 242 231 214 212 204 200 198 193 196 192 195 205 195 196 203 199
252 243 224 231 228 226 211 201 199 204 208 222 229 223 225 215 209 201 199 202 206 201 203 186 147 200 196 203 203 201 208 215
257 262 251 234 222 222 221 221 220 219 234 222 212 215 210 200 201 201 201 199 198 198 199 199 196 199 218 228 243 249 236 228
214 250 266 234 225 229 217 215 218 213 219 207 210 207 215 214 206 213 218 213 229 214 204 217 219 211 219 241 220 221 199 195
246 217 245 250 267 229 228 232 221 211 212 217 204 202 213 218 221 201 200 202 203 202 202 211 203 208 213 204 194 213 205 208
217 264 206 234 244 254 242 225 211 208 206 198 208 227 201 198 191 192 195 187 211 200 215 206 204 208 217 197 194 196 192 200
192 215 266 235 212 246 249 251 229 218 196 214 212 184 203 172 194 200 192 196 201 198 190 184 169 193 187 196 189 189 203 194
219 201 198 260 243 232 204 241 252 253 254 223 209 198 187 189 191 182 201 170 190 188 199 189 188 181 201 188 184 195 193 196
222 236 187 186 239 225 236 235 249 239 205 209 200 193 209 201 181 175 179 179 174 179 175 199 187 188 185 189 184 204 203 205
205 202 251 195 182 246 228 232 244 225 231 226 205 211 205 196 194 182 203 184 188 179 185 185 188 188 188 186 189 198 207 195
209 197 230 246 195 204 252 226 220 242 227 203 205 196 191 190 197 196 185 190 189 183 180 180 184 186 192 216 196 196 199 196
197 196 213 209 252 191 197 182 237 217 230 220 207 200 197 191 189 187 191 188 190 193 189 191 194 197 195 199 206 206 201 205
191 207 201 203 220 224 256 235 208 174 171 221 226 214 214 210 208 204 203 203 203 203 205 205 205 204 206 213 212 204 225 232
212 181 204 190 210 211 196 224 222 232 204 187 250 233 263 260 266 266 269 279 275 267 253 250 256 258 263 260 257 247 240 237
Wind_Speed
34 41 48 51 66 81 93 86 91 92 60 80 57 94 54 62 68 77 58 69 70 75 63 77 68 68 71 70 66 63 68 65
37 32 64 76 54 69 90 70 81 93 44 64 93 43 55 65 61 75 79 69 80 68 71 69 70 68 68 61 69 65 65 71
35 25 46 44 73 53 85 63 67 84 48 47 50 66 59 60 77 79 51 36 58 62 73 72 61 57 62 66 69 70 73 74
26 31 32 64 63 72 58 63 52 43 53 76 80 77 65 70 72 64 68 73 69 69 75 60 57 63 65 67 71 74 78 80
23 30 33 60 62 75 80 84 73 76 72 80 79 80 80 75 76 85 87 73 66 64 60 59 63 67 64 71 74 79 78 83
26 30 32 47 36 67 50 56 47 55 71 78 88 66 86 76 48 47 57 52 55 59 61 63 64 66 70 70 71 73 75 77
21 30 35 36 38 50 67 67 68 73 76 70 65 53 43 46 49 52 53 56 57 59 65 65 51 72 73 74 72 75 76 78
20 22 36 36 40 43 43 46 44 45 40 43 41 42 43 45 48 51 53 55 58 59 63 67 70 76 75 69 64 62 65 65
12 17 26 37 37 48 43 40 40 34 33 31 35 33 37 39 42 46 52 56 58 63 63 61 60 68 69 62 56 57 60 62
20 14 22 24 35 43 41 42 42 42 39 37 33 33 33 32 27 31 37 38 42 48 52 51 60 67 68 61 58 66 66 66
23 26 17 22 32 34 43 40 31 31 33 37 38 37 19 23 31 35 41 47 43 48 51 54 60 66 68 61 65 66 68 72
24 25 27 26 19 31 33 39 47 37 34 42 34 26 23 44 31 26 36 34 41 51 56 58 48 62 64 71 70 73 87 82
11 23 26 27 32 28 21 35 39 40 33 35 34 30 31 35 35 39 39 41 36 62 70 64 72 70 78 76 76 88 85 86
15 13 24 26 25 25 32 33 38 34 39 41 37 41 33 35 44 43 45 42 59 63 64 74 80 80 81 84 80 95 95 93
24 15 16 21 31 25 25 28 36 26 35 41 43 42 38 36 43 50 50 54 62 69 72 76 84 87 87 86 92 97 94 92
36 23 23 14 25 24 22 25 25 30 36 36 40 44 44 43 47 55 54 60 67 72 74 79 86 90 95 92 98 97 96 95
37 33 25 15 23 27 26 34 23 25 35 38 44 45 48 51 54 55 61 63 69 76 81 86 91 92 92 94 94 94 94 94
38 44 32 22 24 18 25 20 26 41 46 40 44 47 53 57 61 65 67 70 75 80 83 85 88 89 92 94 93 92 91 84
48 39 43 33 35 25 23 22 22 23 27 40 32 37 33 39 39 46 49 52 58 64 73 77 75 73 71 71 70 72 75 76
Wind_Direction
222 226 218 219 216 216 218 222 228 233 243 242 253 247 271 269 270 270 280 283 283 285 291 291 284 285 284 283 280 278 279 282
216 229 212 212 225 223 222 234 232 231 248 249 242 270 274 275 275 275 272 279 281 282 287 282 285 286 284 288 286 290 286 285
229 242 223 228 219 235 227 238 241 239 251 255 265 262 268 271 274 273 271 267 277 280 284 283 285 284 283 285 287 287 284 285
238 236 238 215 221 226 234 232 240 249 253 249 254 259 264 269 269 273 277 277 280 281 282 275 275 280 279 280 280 281 279 280
245 234 234 219 225 226 229 230 236 242 248 250 251 255 261 269 273 272 271 273 279 273 273 273 274 276 277 276 279 277 278 276
238 233 230 226 253 227 239 235 244 246 247 254 255 258 264 269 269 270 269 273 276 278 279 277 278 278 281 283 281 282 281 281
245 236 234 226 227 229 232 233 238 243 250 252 252 252 258 261 265 269 272 274 278 278 278 280 279 281 281 280 279 280 284 284
263 253 233 231 232 232 232 231 231 236 245 246 255 260 263 265 267 270 276 278 278 278 280 279 281 282 284 286 284 284 286 286
284 264 254 230 237 234 243 243 249 251 254 261 269 268 273 272 275 277 274 276 284 282 282 286 286 283 286 284 289 290 294 291
290 275 266 246 249 239 242 243 244 250 253 248 257 262 269 271 281 284 289 286 285 284 281 281 281 286 287 289 295 301 301 300
306 283 269 263 247 246 243 242 240 237 235 239 251 257 263 265 268 272 282 286 299 293 291 287 287 291 291 296 300 299 297 299
297 294 277 274 263 256 250 248 247 242 251 259 249 254 267 268 273 277 288 308 304 294 292 299 290 295 298 296 302 304 301 302
283 282 288 270 271 273 260 248 247 244 237 249 250 251 240 259 265 275 263 285 263 272 274 290 299 305 295 303 303 299 299 299
302 300 275 290 262 263 269 267 255 246 252 244 251 254 258 239 270 283 274 274 281 287 301 273 296 298 300 297 301 296 295 295
289 264 315 265 280 249 263 266 265 254 243 242 252 245 247 261 251 283 251 271 266 289 287 288 291 291 294 298 294 290 290 293
301 282 317 309 262 271 248 258 260 255 248 253 258 265 277 278 266 261 280 273 276 286 290 291 290 289 286 280 285 286 288 290
288 283 304 272 328 262 263 274 255 257 251 249 251 261 264 273 276 279 277 278 275 272 275 276 276 276 279 279 280 282 285 287
275 297 293 280 309 312 310 298 272 276 280 255 249 257 258 261 264 267 269 269 269 269 269 271 274 277 277 277 280 285 284 286
293 268 297 287 302 295 267 291 291 285 259 265 258 267 267 267 274 275 277 279 278 276 274 275 278 283 286 287 287 286 286 287